sat.trackr.live / text

‹ back to catalog

2024-205Q

NORAD 61908 · 2024-205Q

PAYLOAD ACTIVE UNKNOWN

§ Identity

Operator
Country
PRC
Launch date
2024-11-11
Launch site
JSC
Launch vehicle
Mass (kg)
RCS (m²)

External: N2YO · Heavens-Above · Gunter

§ Orbital elements

Epoch: 2026-05-25T04:28:13.091232Z

Period
94.92 min
Inclination
97.4135°
Eccentricity
0.0013512
Mean motion
15.17051030 rev/d
Perigee alt
505.4 km
Apogee alt
524.1 km
Semi-major
6,892.9 km
B*
2.5233e-4
RAAN
218.1760°
Arg perigee
133.6831°
Mean anomaly
226.5524°
Rev number
8,484

§ Raw data

2024-205Q1 61908U 24205Q   26145.18626263  .00004938  00000+0  25233-3 0  99902 61908  97.4135 218.1760 0013512 133.6831 226.5524 15.17051030 84840

JSON: /api/v1/satellites/61908 · /tle

For live sub-satellite position, see the globe view (requires WebGL).

§ Visibility from observer

Set your observer location to see the next 7 days of passes ≥ 10°. The values pass through the URL so the page stays shareable.

No JS? Fill the form by hand. The geolocation button needs JavaScript.